Location: El Hornillo
(40.2499°N, 5.1036°W)
Time: 10:52:14
(UTC+00:00)

Cosmos 2058 - Pass Details

Date: 05 August 2024
Orbit: 543 x 560 km, 82.5° (Epoch: 18 September)

Event Time Altitude Azimuth Distance (km) Brightness Sun altitude
Rises 21:15:26 0° 205° (SSW) 2,735 6.2 -17.9°
Reaches altitude 10° 21:17:43 10° 214° (SSW) 1,841 5.4 -18.2°
Maximum altitude 21:21:29 37° 282° (WNW) 878 4.3 -18.7°
Drops below altitude 10° 21:25:17 10° 351° (N) 1,843 6.2 -19.2°
Sets 21:27:34 0° 360° (N) 2,738 7.1 -19.6°
